CAPE
0 0 0 0 0 0 0 0 0 0 0 0 0 0 0 0 0 0 0 0 0 0 0 0 0 0 0 0 0 0 0 0 0 0 0 0 0 0 0 0 0 0 4 11 1 3 6
0 0 0 0 0 0 0 0 0 0 0 0 0 0 0 0 0 0 0 0 0 0 0 0 0 0 0 0 0 0 0 0 0 0 0 0 0 0 0 0 0 0 4 20 13 4 2
0 0 0 0 0 0 0 0 0 0 0 0 0 0 0 0 0 0 0 0 0 0 0 0 0 0 0 0 0 0 0 0 0 0 0 0 0 0 0 0 0 0 0 5 2 0 0
0 0 0 0 0 0 0 0 0 0 0 0 0 0 0 0 0 0 0 0 0 0 0 0 0 0 0 0 0 0 0 0 0 0 0 0 0 0 0 0 0 0 0 0 0 0 0
6 0 0 0 0 0 0 0 0 0 0 0 0 0 0 0 0 0 0 0 0 0 0 0 0 0 0 0 0 0 0 0 0 0 0 0 0 0 0 0 0 0 0 0 0 0 0
3 5 6 0 0 0 0 0 0 0 0 0 0 0 0 0 0 0 0 0 0 0 0 0 0 0 0 0 0 0 0 0 0 0 0 0 0 0 0 0 0 0 0 0 0 0 0
1 0 0 7 0 0 0 0 0 0 0 0 0 0 0 0 0 0 0 0 0 0 0 0 0 0 0 0 0 0 0 0 0 0 0 0 0 0 0 0 0 0 0 0 0 7 1
1 0 0 0 0 2 0 0 0 0 0 0 0 0 0 0 0 0 0 0 0 0 0 0 0 0 0 0 0 0 0 0 0 0 0 0 0 0 0 0 0 0 0 0 0 11 5
6 0 1 0 0 3 5 0 0 0 0 0 0 0 0 0 0 0 0 0 0 0 0 0 0 0 0 0 0 0 0 0 0 0 0 0 0 0 0 0 0 0 0 0 0 0 0
8 5 0 0 1 0 0 9 0 0 0 0 0 0 0 0 0 0 0 0 0 0 0 0 0 0 0 0 0 0 0 0 0 0 0 0 0 0 0 0 0 0 0 0 0 0 0
5 6 2 2 0 0 0 20 2 0 0 0 0 0 0 0 0 0 0 0 0 0 0 0 0 0 0 0 0 0 0 0 0 0 0 0 0 0 0 0 0 0 0 0 0 0 0
4 0 2 2 2 0 0 0 27 2 0 0 0 0 0 0 0 0 0 0 0 0 0 0 0 0 0 0 0 0 0 0 0 0 0 0 0 0 0 0 0 0 0 0 0 0 0
3 3 0 0 0 3 7 0 1 19 0 0 0 0 0 0 0 0 0 0 0 0 0 0 0 0 0 0 0 0 0 0 0 0 0 0 0 0 0 0 0 0 0 0 0 0 0
0 4 5 3 5 4 10 11 0 16 2 0 0 0 0 0 0 0 0 0 0 0 0 0 0 0 0 0 0 0 0 0 0 0 0 0 0 0 0 0 0 0 0 0 0 0 0
7 7 3 3 0 7 1 14 5 4 17 0 0 0 0 0 0 0 0 0 0 0 0 0 0 0 0 0 0 0 0 0 0 0 0 0 0 0 0 0 0 0 0 0 0 0 0
10 4 1 8 7 3 2 0 15 5 23 0 0 0 0 0 0 0 0 0 0 0 0 0 0 0 0 0 0 0 0 0 0 0 0 0 0 0 0 0 0 0 0 0 0 0 0
5 2 19 19 11 16 10 0 5 2 25 0 0 0 0 0 0 0 0 0 0 0 0 0 0 0 0 0 0 0 0 0 0 0 0 0 0 0 0 0 0 0 0 0 0 0 0
20 24 22 26 23 22 35 4 4 7 11 0 0 0 0 0 0 0 0 0 0 0 0 0 0 0 0 0 0 0 0 0 0 0 0 0 0 0 0 0 0 0 0 0 0 0 0
31 27 38 32 24 18 27 27 4 16 1 0 0 0 8 0 0 0 0 0 0 0 0 0 0 0 0 0 0 0 0 0 0 0 0 0 0 0 0 0 0 0 0 0 0 0 0
30 27 39 34 26 25 22 38 1 0 7 0 0 0 0 18 0 0 0 0 0 0 0 0 0 0 0 0 0 0 0 0 0 0 0 0 0 0 0 0 0 0 0 0 0 0 0
14 22 23 38 28 10 20 31 5 19 12 0 0 0 0 0 6 0 0 0 0 0 0 0 0 0 0 0 0 0 0 0 0 0 0 0 0 0 0 0 0 0 0 0 0 0 0
27 16 40 50 35 13 3 14 1 26 30 0 0 0 0 0 2 4 0 0 0 0 0 0 0 0 0 0 0 0 0 0 0 0 0 0 0 0 0 0 0 0 0 0 0 0 0
37 11 51 46 28 10 0 1 8 25 0 2 0 0 0 0 0 12 2 0 0 0 0 0 0 0 0 0 0 0 0 0 0 0 0 0 0 0 0 0 0 0 0 0 0 0 0
14 45 51 62 50 27 9 0 16 24 0 0 0 0 0 0 0 0 2 0 0 0 0 7 0 0 0 0 0 0 0 0 0 0 0 0 0 0 0 0 0 0 0 0 0 0 0
6 42 39 49 51 24 7 13 17 17 0 2 0 2 0 0 1 0 11 3 0 7 1 0 0 0 0 0 0 0 0 0 0 0 0 0 0 0 0 0 0 0 0 0 0 0 0
3 35 15 23 46 18 0 3 27 12 4 0 0 15 4 2 0 4 0 0 0 0 0 0 0 0 0 0 0 0 0 0 0 0 0 0 0 0 0 0 0 0 0 0 0 0 0
11 7 15 10 8 11 1 0 21 13 4 0 1 7 3 1 1 1 1 0 0 0 0 0 0 0 0 0 0 0 0 0 0 0 0 0 0 0 0 0 0 0 0 0 0 0 0
19 9 2 17 15 13 2 9 18 8 6 1 0 2 3 2 0 1 1 1 0 0 0 0 0 0 0 0 0 0 0 0 0 0 0 0 0 0 0 0 0 0 0 0 0 0 0
10 17 1 3 12 14 11 8 20 23 5 0 0 2 1 2 3 1 0 0 0 0 0 0 0 0 0 0 0 0 0 0 0 0 0 0 0 0 0 0 0 0 0 0 0 0 0
CIN
-0 -0 -0 -0 -0 -0 -0 -0 -0 -0 -0 -0 -0 -0 -0 -0 -0 -0 -0 -0 -0 -0 -0 -0 -0 -0 -0 -0 -0 -0 -0 -0 -0 -0 -0 -0 -0 -0 -0 -0 -0 -0 -43 -37 -18 -62 -43
-0 -0 -0 -0 -0 -0 -0 -0 -0 -0 -0 -0 -0 -0 -0 -0 -0 -0 -0 -0 -0 -0 -0 -0 -0 -0 -0 -0 -0 -0 -0 -0 -0 -0 -0 -0 -0 -0 -0 -0 -0 -0 -68 -65 -81 -74 -33
-0 -0 -0 -0 -0 -0 -0 -0 -0 -0 -0 -0 -0 -0 -0 -0 -0 -0 -0 -0 -0 -0 -0 -0 -0 -0 -0 -0 -0 -0 -0 -0 -0 -0 -0 -0 -0 -0 -0 -0 -0 -0 -2 -118 -73 -0 -0
-0 -0 -0 -0 -0 -0 -0 -0 -0 -0 -0 -0 -0 -0 -0 -0 -0 -0 -0 -0 -0 -0 -0 -0 -0 -0 -0 -0 -0 -0 -0 -0 -0 -0 -0 -0 -0 -0 -0 -0 -0 -0 -0 -0 -0 -0 -0
-0 -0 -0 -0 -0 -0 -0 -0 -0 -0 -0 -0 -0 -0 -0 -0 -0 -0 -0 -0 -0 -0 -0 -0 -0 -0 -0 -0 -0 -0 -0 -0 -0 -0 -0 -0 -0 -0 -0 -0 -0 -0 -0 -0 -0 -0 -0
-0 -0 -0 -0 -0 -0 -0 -0 -0 -0 -0 -0 -0 -0 -0 -0 -0 -0 -0 -0 -0 -0 -0 -0 -0 -0 -0 -0 -0 -0 -0 -0 -0 -0 -0 -0 -0 -0 -0 -0 -0 -0 -0 -0 -0 -0 -0
-0 -0 -0 -1 -0 -0 -0 -0 -0 -0 -0 -0 -0 -0 -0 -0 -0 -0 -0 -0 -0 -0 -0 -0 -0 -0 -0 -0 -0 -0 -0 -0 -0 -0 -0 -0 -0 -0 -0 -0 -0 -0 -0 -0 -0 -27 -38
-0 -0 -0 -0 -0 -0 -0 -0 -0 -0 -0 -0 -0 -0 -0 -0 -0 -0 -0 -0 -0 -0 -0 -0 -0 -0 -0 -0 -0 -0 -0 -0 -0 -0 -0 -0 -0 -0 -0 -0 -0 -0 -0 -0 -0 -41 -37
-0 -0 -0 -0 -0 -2 -0 -2 -0 -0 -0 -0 -0 -0 -0 -0 -0 -0 -0 -0 -0 -0 -0 -0 -0 -0 -0 -0 -0 -0 -0 -0 -0 -0 -0 -0 -0 -0 -0 -0 -0 -0 -0 -0 -1 -0 -0
-1 -0 -0 -0 -0 -0 -0 -1 -0 -0 -0 -0 -0 -0 -0 -0 -0 -0 -0 -0 -0 -0 -0 -0 -0 -0 -0 -0 -0 -0 -0 -0 -0 -0 -0 -0 -0 -0 -0 -0 -0 -0 -0 -0 -0 -0 -0
-0 -0 -0 -7 -0 -0 -0 -0 -7 -0 -0 -0 -0 -0 -0 -0 -0 -0 -0 -0 -0 -0 -0 -0 -0 -0 -0 -0 -0 -0 -0 -0 -0 -0 -0 -0 -0 -0 -0 -0 -0 -0 -0 -0 -0 -0 -0
-0 -0 -0 -0 -7 -0 -0 -0 -4 -10 -0 -0 -0 -0 -0 -0 -0 -0 -0 -0 -0 -0 -0 -0 -0 -0 -0 -0 -0 -0 -0 -0 -0 -0 -0 -0 -0 -0 -0 -0 -0 -0 -0 -0 -0 -0 -0
-0 -0 -0 -0 -0 -12 -4 -2 -3 -6 -0 -0 -0 -0 -0 -0 -0 -0 -0 -0 -0 -0 -0 -0 -0 -0 -0 -0 -0 -0 -0 -0 -0 -0 -0 -0 -0 -0 -0 -0 -0 -0 -0 -0 -0 -0 -0
-0 -0 -0 -0 -1 -6 -8 -2 -0 -1 -4 -0 -0 -0 -0 -0 -0 -0 -0 -0 -0 -0 -0 -0 -0 -0 -0 -0 -0 -0 -0 -0 -0 -0 -0 -0 -0 -0 -0 -0 -0 -0 -0 -0 -0 -0 -0
-0 -0 -0 -0 -0 -2 -12 -8 -5 -17 -2 -0 -0 -0 -0 -0 -0 -0 -0 -0 -0 -0 -0 -0 -0 -0 -0 -0 -0 -0 -0 -0 -0 -0 -0 -0 -0 -0 -0 -0 -0 -0 -0 -0 -0 -0 -0
-0 -0 -0 -2 -2 -4 -9 -13 -1 -1 -8 -0 -0 -0 -0 -0 -0 -0 -0 -0 -0 -0 -0 -0 -0 -0 -0 -0 -0 -0 -0 -0 -0 -0 -0 -0 -0 -0 -0 -0 -0 -0 -0 -0 -0 -0 -0
-0 -0 -0 -1 -2 -3 -4 -0 -7 -1 -2 -0 -0 -0 -0 -0 -0 -0 -0 -0 -0 -0 -0 -0 -0 -0 -0 -0 -0 -0 -0 -0 -0 -0 -0 -0 -0 -0 -0 -0 -0 -0 -0 -0 -0 -0 -0
-0 -1 -1 -0 -0 -3 -1 -8 -15 -1 -1 -0 -0 -0 -0 -0 -0 -0 -0 -0 -0 -0 -0 -0 -0 -0 -0 -0 -0 -0 -0 -0 -0 -0 -0 -0 -0 -0 -0 -0 -0 -0 -0 -0 -0 -0 -0
-1 -1 -0 -0 -0 -3 -5 -4 -30 -1 -6 -0 -0 -0 -6 -1 -0 -0 -0 -0 -0 -0 -0 -0 -0 -0 -0 -0 -0 -0 -0 -0 -0 -0 -0 -0 -0 -0 -0 -0 -0 -0 -0 -0 -0 -0 -0
-1 -2 -0 -0 -0 -2 -4 -3 -13 -0 -1 -0 -0 -0 -0 -4 -0 -0 -0 -0 -0 -0 -0 -0 -0 -0 -0 -0 -0 -0 -0 -0 -0 -0 -0 -0 -0 -0 -0 -0 -0 -0 -0 -0 -0 -0 -0
-2 -2 -1 -1 -1 -9 -2 -3 -9 -2 -0 -0 -0 -0 -0 -0 -0 -0 -0 -0 -0 -0 -0 -0 -0 -0 -0 -0 -0 -0 -0 -0 -0 -0 -0 -0 -0 -0 -0 -0 -0 -0 -0 -0 -0 -0 -0
-2 -5 -3 -2 -4 -8 -8 -8 -14 -1 -1 -0 -0 -0 -0 -0 -7 -0 -0 -0 -0 -0 -0 -0 -0 -0 -0 -0 -0 -0 -0 -0 -0 -0 -0 -0 -0 -0 -0 -0 -0 -0 -0 -0 -0 -0 -0
-1 -5 -3 -3 -8 -9 -6 -3 -16 -2 -0 -0 -0 -0 -0 -0 -0 -1 -0 -1 -0 -0 -0 -0 -0 -0 -0 -0 -0 -0 -0 -0 -0 -0 -0 -0 -0 -0 -0 -0 -0 -0 -0 -0 -0 -0 -0
-0 -1 -2 -0 -2 -4 -14 -2 -11 -5 -0 -0 -0 -0 -0 -0 -0 -0 -0 -0 -0 -0 -0 -34 -0 -0 -0 -0 -0 -0 -0 -0 -0 -0 -0 -0 -0 -0 -0 -0 -0 -0 -0 -0 -0 -0 -0
-0 -0 -6 -8 -3 -4 -18 -14 -3 -5 -0 -1 -0 -1 -0 -0 -0 -0 -1 -0 -0 -2 -1 -0 -0 -0 -0 -0 -0 -0 -0 -0 -0 -0 -0 -0 -0 -0 -0 -0 -0 -0 -0 -0 -0 -0 -0
-0 -0 -10 -17 -7 -13 -14 -10 -1 -0 -0 -0 -1 -5 -0 -0 -0 -0 -0 -0 -0 -0 -0 -0 -0 -0 -0 -0 -0 -0 -0 -0 -0 -0 -0 -0 -0 -0 -0 -0 -0 -0 -0 -0 -0 -0 -0
-0 -1 -1 -6 -14 -14 -11 -9 -9 -0 -1 -0 -1 -5 -0 -0 -0 -0 -0 -0 -0 -4 -0 -0 -0 -0 -0 -0 -0 -0 -0 -0 -0 -0 -0 -0 -0 -0 -0 -0 -0 -0 -0 -0 -0 -0 -0
-0 -0 -4 -2 -7 -10 -7 -9 -7 -3 -0 -0 -0 -5 -0 -0 -0 -0 -0 -0 -0 -0 -0 -0 -0 -0 -0 -0 -0 -0 -0 -0 -0 -0 -0 -0 -0 -0 -0 -0 -0 -0 -0 -0 -0 -0 -0
-0 -0 -3 -2 -2 -9 -11 -6 -1 -1 -4 -0 -0 -0 -4 -0 -0 -2 -0 -0 -0 -0 -0 -0 -0 -0 -0 -0 -0 -0 -0 -0 -0 -0 -0 -0 -0 -0 -0 -0 -0 -0 -0 -0 -0 -0 -0
Wind_Speed
28 28 28 29 29 28 29 29 29 29 29 29 30 30 30 30 30 30 30 30 30 29 29 28 26 25 19 19 19 19 14 7 9 11 15 11 13 11 14 16 22 20 13 13 12 11 15
29 29 29 30 30 30 30 30 30 30 31 31 31 31 31 31 31 31 31 31 31 30 29 27 25 22 18 23 18 16 7 7 11 12 14 10 11 14 20 18 15 19 14 12 16 18 18
29 29 30 30 30 32 32 32 32 31 32 32 32 32 32 32 32 32 32 32 32 32 30 26 23 19 20 22 14 15 12 11 11 12 13 13 15 18 17 17 19 16 12 16 18 18 16
27 28 30 31 31 32 32 33 34 33 33 33 33 33 33 33 33 33 33 33 33 31 27 23 18 17 23 22 24 20 16 18 17 15 18 16 19 22 18 16 18 18 15 18 20 19 18
32 30 29 30 32 32 33 34 34 35 35 35 35 34 34 34 34 34 34 34 32 25 19 16 16 18 24 25 19 23 5 19 14 16 19 20 21 17 19 16 16 16 16 20 26 17 16
36 36 32 30 31 33 34 34 35 35 36 36 36 36 36 35 35 35 35 33 25 20 16 17 20 20 22 19 20 18 11 9 13 14 20 19 17 19 18 15 13 14 14 19 20 19 14
38 38 38 35 33 32 34 35 36 36 36 37 37 37 37 37 36 35 32 23 23 21 20 20 20 21 19 19 20 22 23 12 13 15 17 19 18 15 19 17 15 17 19 26 22 18 21
40 40 39 39 37 35 35 36 36 37 37 37 37 37 37 37 37 36 25 22 22 24 29 29 38 35 36 25 22 20 13 12 12 13 13 17 20 18 19 20 18 18 19 25 25 20 15
40 41 41 41 41 39 37 36 37 37 37 37 37 37 37 38 39 27 26 22 24 23 28 31 26 26 28 18 21 21 10 14 15 14 10 11 16 15 17 23 23 25 13 17 16 19 12
41 41 42 42 41 43 41 38 37 38 38 37 37 37 36 37 28 27 23 27 26 21 30 31 26 27 19 17 25 24 19 16 18 14 14 17 19 16 16 17 19 25 22 18 18 20 24
43 43 42 42 42 41 43 41 39 39 39 38 37 36 34 31 32 28 26 29 26 20 37 24 23 19 14 14 16 23 19 17 10 12 12 16 15 13 20 28 28 17 22 17 16 19 22
44 43 43 43 44 44 42 43 41 39 40 39 37 35 33 29 31 29 29 28 19 26 41 26 16 16 14 15 21 15 14 20 18 12 17 20 25 21 23 30 25 22 16 17 17 18 23
45 45 45 44 43 43 42 42 41 39 40 40 37 36 33 31 30 25 28 22 30 41 26 28 21 16 16 18 23 23 16 14 14 12 12 28 38 32 27 31 28 19 17 23 24 21 18
44 43 43 43 43 43 42 41 41 40 39 39 37 37 36 37 32 27 25 28 44 39 34 20 23 19 20 18 22 22 22 19 20 16 16 19 26 29 21 20 20 18 15 17 20 17 17
43 43 42 42 42 42 41 40 38 39 36 35 34 37 38 36 31 26 29 42 48 38 31 28 22 26 27 23 21 22 26 25 23 18 19 20 27 25 26 24 17 17 20 16 20 20 20
42 41 41 40 40 41 41 41 38 37 32 28 33 37 42 32 23 26 36 51 43 33 27 27 33 25 29 27 24 22 25 26 26 21 20 24 29 22 23 21 25 19 15 21 21 23 23
38 38 39 39 42 43 42 41 39 40 32 24 30 38 34 25 23 33 49 49 46 37 31 28 31 31 26 24 28 25 26 28 22 23 20 23 26 30 23 24 25 21 21 18 17 19 21
34 36 41 42 43 42 41 41 40 38 20 19 28 40 26 22 36 41 52 43 41 38 39 34 28 29 28 25 26 26 29 27 21 21 25 23 22 28 30 22 19 20 20 18 21 20 22
37 40 43 43 42 41 40 40 40 36 25 22 33 36 25 28 45 48 45 48 44 38 37 33 35 30 27 26 28 26 26 22 22 23 23 21 27 29 30 27 22 21 19 19 22 23 27
40 41 43 42 42 41 39 39 40 40 40 22 29 36 31 34 37 43 46 49 46 43 48 39 37 35 34 34 28 28 25 23 23 23 20 18 24 26 27 25 22 25 23 19 22 28 27
42 42 40 40 40 39 38 38 39 35 34 26 28 33 29 36 45 44 39 41 48 44 42 41 40 43 37 37 35 36 29 26 22 19 21 23 27 25 25 24 22 24 25 24 25 25 27
43 43 41 39 38 37 37 37 39 41 35 30 28 29 30 32 31 36 45 45 43 44 40 44 47 35 36 39 35 33 28 27 26 22 23 23 26 24 25 24 25 28 24 24 26 27 29
40 39 36 35 35 35 35 37 40 36 23 28 29 26 27 35 35 33 37 43 40 37 39 41 41 41 40 36 29 25 25 23 25 25 25 24 25 26 31 25 29 38 29 26 25 26 27
38 37 34 34 34 34 34 36 37 39 33 29 29 24 29 37 35 40 30 35 42 39 36 34 35 37 34 21 19 19 21 22 22 23 23 25 25 27 31 27 42 31 27 24 23 23 23
37 34 34 34 34 34 33 33 33 34 28 27 25 24 27 33 33 35 39 31 32 32 32 30 28 27 24 22 27 29 29 29 29 25 23 21 24 28 31 34 34 29 25 21 23 28 23
34 31 29 32 32 32 33 33 34 33 29 26 22 19 23 28 30 29 32 32 31 31 29 28 24 22 22 27 30 36 37 31 33 29 24 23 22 27 29 35 38 29 29 25 22 33 22
32 29 27 27 30 31 32 34 34 34 29 24 26 21 21 25 23 23 26 28 26 28 28 26 25 24 22 28 32 33 35 28 32 32 32 30 30 32 32 35 34 28 26 22 30 31 19
31 29 28 26 27 30 31 32 32 35 28 25 26 22 21 21 21 18 18 23 24 25 30 29 25 25 25 28 31 30 30 28 29 27 27 31 32 35 34 39 45 26 26 31 22 18 18
30 29 28 26 25 28 30 31 28 27 17 16 23 19 19 20 17 19 19 17 18 23 25 26 27 24 23 25 24 24 27 26 28 34 24 29 28 29 28 30 20 17 16 14 16 17 19
Wind_Direction
332 327 323 321 320 322 320 318 316 314 312 310 308 307 304 300 298 295 293 290 287 286 286 286 285 286 296 291 280 284 270 274 270 273 269 276 285 303 301 322 321 357 9 0 353 359 355
326 327 325 320 316 315 315 315 314 311 310 307 305 304 302 300 299 296 293 290 287 284 280 278 281 288 290 277 286 289 300 280 274 268 268 272 287 301 302 315 334 343 2 10 358 345 348
329 325 321 320 319 313 311 310 310 310 307 305 303 301 299 298 296 293 292 289 286 283 277 277 279 288 281 269 297 296 286 282 276 271 259 265 289 303 309 311 313 335 342 338 344 353 350
329 327 323 319 316 314 311 307 305 304 304 303 301 299 297 295 294 293 291 289 285 277 276 283 290 289 275 269 264 271 275 277 275 267 260 274 291 296 299 305 308 316 336 331 337 340 341
319 321 322 319 316 314 310 307 303 300 299 299 299 298 296 293 292 293 291 287 281 283 293 299 294 287 274 268 273 262 265 269 276 266 263 278 288 298 297 299 300 317 319 323 325 338 347
318 314 314 317 316 312 309 307 303 300 297 296 296 296 295 293 292 294 292 286 284 295 301 293 282 283 277 278 271 268 280 270 274 269 264 277 285 287 290 293 283 303 319 321 325 332 360
314 314 312 309 310 310 308 305 303 299 296 294 293 293 293 292 291 291 296 298 290 290 288 279 281 274 278 286 278 264 254 271 273 273 265 276 281 280 284 282 290 300 309 303 312 319 325
315 312 311 309 306 304 303 302 301 299 296 293 292 291 291 291 289 287 294 290 293 290 278 272 242 256 247 270 273 267 258 257 266 267 268 275 275 278 281 277 289 299 305 301 304 314 332
317 313 310 307 304 302 299 298 296 295 295 293 290 290 289 289 286 286 282 287 297 297 281 273 271 266 255 271 268 262 253 259 263 269 257 267 284 277 278 274 284 289 309 316 325 325 344
318 317 312 307 303 300 298 293 293 290 290 291 289 287 289 290 280 281 275 287 292 296 276 270 268 265 260 270 266 258 258 261 262 261 272 273 272 277 280 282 291 289 297 315 325 325 308
316 314 313 311 304 300 297 290 288 287 285 286 287 285 285 286 273 271 278 286 287 287 259 275 268 267 253 240 275 262 249 256 244 260 261 269 274 272 275 269 279 292 299 310 324 323 316
314 313 311 308 304 298 294 290 283 282 280 281 282 282 281 275 271 268 282 282 277 262 252 268 267 253 247 233 257 286 244 253 263 259 264 269 265 275 276 262 281 283 302 307 312 322 312
313 310 308 306 303 299 292 289 285 277 275 274 277 277 273 271 260 273 280 267 253 247 264 262 257 253 244 247 251 259 256 231 236 245 241 263 247 260 270 265 270 289 290 291 295 304 314
313 311 307 304 301 297 293 286 283 276 273 270 271 272 268 262 262 268 266 247 245 251 247 276 260 253 249 253 251 251 255 244 248 250 270 264 267 259 270 275 279 287 287 290 299 309 322
312 309 307 303 299 295 291 285 281 275 268 267 270 269 263 258 256 252 245 238 243 247 251 254 270 253 253 255 260 248 253 254 250 234 253 271 268 272 269 271 277 280 281 296 295 305 307
311 308 305 301 298 292 286 281 274 272 268 262 264 264 256 255 245 237 240 239 245 249 258 251 254 262 255 250 252 251 251 260 255 244 247 267 274 274 274 276 277 263 285 285 289 289 294
309 307 305 298 292 286 279 275 269 265 262 252 259 255 256 240 233 234 236 239 243 249 251 256 253 256 260 259 252 253 258 260 248 251 243 260 266 264 274 272 279 270 265 284 295 286 289
309 305 299 291 285 282 275 269 260 248 252 245 252 246 260 218 230 236 236 239 244 247 249 252 258 256 256 261 261 260 257 256 255 247 245 254 272 263 265 275 290 275 261 260 276 285 289
308 301 293 287 282 279 272 265 256 253 247 254 247 248 261 229 232 235 239 241 244 245 245 249 250 255 255 257 260 266 266 267 261 253 248 250 261 265 268 268 275 276 278 270 278 286 283
306 298 290 284 277 274 267 261 249 245 237 249 247 242 242 236 239 238 238 240 241 244 245 249 252 255 255 253 258 261 267 268 267 259 257 249 260 257 258 270 266 269 271 274 276 279 286
303 299 294 283 272 267 263 256 245 246 235 241 243 242 240 235 235 239 240 243 239 242 244 246 249 249 251 250 252 254 263 264 266 261 261 256 258 264 268 267 270 273 274 275 277 281 281
299 289 286 275 265 262 259 250 241 234 234 238 240 244 241 238 240 240 238 240 240 240 244 243 244 248 249 250 251 252 255 259 257 261 260 263 261 265 267 272 272 270 276 279 282 286 288
300 291 287 274 262 261 257 246 238 237 232 238 244 252 245 240 240 242 242 239 241 244 246 248 247 245 248 252 255 256 257 261 261 259 259 262 262 264 265 273 276 269 272 276 282 286 289
296 283 283 268 260 259 256 247 241 236 231 243 239 249 243 239 241 239 252 243 240 241 249 253 245 242 246 248 252 257 255 259 264 264 264 258 262 267 267 271 267 280 283 279 280 288 292
297 287 267 256 256 255 252 245 242 235 228 238 243 247 244 243 244 246 243 251 248 244 249 249 252 248 239 240 247 249 253 253 257 262 264 265 262 266 266 267 277 279 279 284 283 282 289
299 296 290 259 255 252 248 243 238 235 222 234 250 252 249 247 242 254 245 244 244 240 241 248 251 250 242 243 244 245 246 250 251 257 261 267 270 265 268 268 268 280 282 291 289 279 290
298 298 295 274 258 249 244 236 228 222 221 237 240 247 250 248 247 258 244 241 251 244 241 244 243 244 249 243 244 247 248 252 251 253 256 259 265 263 267 270 276 281 290 295 276 281 292
299 295 288 280 263 248 241 235 233 229 218 230 236 240 245 250 251 264 260 249 254 246 241 241 242 246 246 244 245 249 253 253 256 259 261 260 262 264 268 270 272 290 288 277 285 293 296
291 293 286 275 267 250 239 237 234 220 216 228 234 240 246 250 264 260 260 265 263 259 249 244 247 241 249 247 253 254 255 257 257 257 271 266 269 269 271 275 284 307 295 299 297 294 297